Location: *
(28.2408°N, 53.4600°E)
Time: 19:42:10
(UTC+00:00)

IRS-1A Rocket - Pass Details

Date: 22 September 2019
Orbit: 852 x 931 km, 99.2° (Epoch: 22 October)

Event Time Altitude Azimuth Distance (km) Brightness Sun altitude
Rises 15:50:12 0° 168° (SSE) 3,526 7.2 -19.8°
Reaches altitude 10° 15:52:38 10° 170° (S) 2,577 6.5 -20.4°
Maximum altitude 15:58:23 80° 257° (WSW) 908 4.3 -21.6°
Drops below altitude 10° 16:04:02 10° 344° (NNW) 2,534 7.0 -22.8°
Sets 16:06:24 0° 346° (NNW) 3,465 7.8 -23.3°
